This is the latest recevied weather packets stored in our database for station/object DO1SC. If no packets are shown the sender has not sent any weather packets the latest 10 day(s).
| Time | Temp. | Humidity | Pressure | Rain* | Wind** | Luminosity | Snow |
|---|---|---|---|---|---|---|---|
| 1777226718 | 8.33° C | 53% | 1024.1 hPa | - | - | 12 W/m² | - |
| 1777226130 | 8.89° C | 52% | 1024 hPa | - | - | 22 W/m² | - |
| 1777225522 | 8.89° C | 51% | 1023.9 hPa | - | - | 28 W/m² | - |
| 1777224933 | 8.89° C | 50% | 1023.9 hPa | - | - | 27 W/m² | - |
| 1777224325 | 9.44° C | 50% | 1024 hPa | - | - | 26 W/m² | - |
| 1777223736 | 9.44° C | 49% | 1024 hPa | - | - | 27 W/m² | - |
| 1777223128 | 10° C | 46% | 1023.9 hPa | - | - | 32 W/m² | - |
| 1777222519 | 10.56° C | 43% | 1023.9 hPa | - | - | 36 W/m² | - |
| 1777221931 | 10.56° C | 41% | 1023.9 hPa | - | - | 40 W/m² | - |
| 1777221323 | 11.11° C | 38% | 1024 hPa | - | - | 47 W/m² | - |
| 1777220734 | 11.11° C | 37% | 1024.1 hPa | - | - | 56 W/m² | - |
| 1777220125 | 11.67° C | 38% | 1024.1 hPa | - | - | 78 W/m² | - |
| 1777219516 | 11.11° C | 38% | 1024.1 hPa | - | - | 106 W/m² | - |
| 1777218928 | 11.11° C | 41% | 1024.3 hPa | - | - | 107 W/m² | - |
| 1777218319 | 11.11° C | 41% | 1024.2 hPa | - | - | 77 W/m² | - |
| 1777217731 | 10.56° C | 43% | 1024.2 hPa | - | - | 97 W/m² | - |
| 1777217122 | 10.56° C | 42% | 1024.4 hPa | - | - | 117 W/m² | - |
| 1777216534 | 10.56° C | 42% | 1024.5 hPa | - | - | 185 W/m² | - |
| 1777215925 | 10.56° C | 43% | 1024.4 hPa | - | - | 300 W/m² | - |
| 1777215320 | 10.56° C | 42% | 1024.4 hPa | - | - | 257 W/m² | - |
| 1777214728 | 11.11° C | 42% | 1024.5 hPa | - | - | 209 W/m² | - |
| 1777214120 | 10.56° C | 40% | 1024.5 hPa | - | - | 377 W/m² | - |
| 1777213531 | 10.56° C | 41% | 1024.4 hPa | - | - | 229 W/m² | - |
| 1777212922 | 11.11° C | 41% | 1024.5 hPa | - | - | 328 W/m² | - |
| 1777212334 | 10.56° C | 42% | 1024.6 hPa | - | - | 417 W/m² | - |
* Rain since midnight (hover to see other rain measurements)
** Current wind speed in m/s (hover to see current wind gust speed)